Location: Star Hoppers Observatory
(42.7905°N, 83.6127°W)
Time: 04:46:37
(UTC-04:00)

Amateur Radio Satellites - All Passes

Search period start: 18 April 2015 04:16
Search period end: 19 April 2015 04:16
Location: Star Hoppers Observatory, 42.7905°N, 83.6127°W

Satellite Date Start Highest point End Downlink Frequencies (MHz)
Time Altitude Azimuth
DANDE 18 Apr 04:18:11 04:19:06 10° 60° (ENE) 04:20:34 436.750
RS-15 18 Apr 04:21:29 04:29:21 20° 259° (W) 04:36:36 29.354- 29.394
CUSAT 1 18 Apr 04:32:46 04:37:14 19° 65° (ENE) 04:42:36 437.405
MOZHAYETS 4 18 Apr 04:41:19 04:45:21 31° 69° (ENE) 04:49:29
Gurwin Techsat 1B 18 Apr 04:55:00 05:00:03 44° 290° (WNW) 05:05:03 435.225
STARS 18 Apr 04:57:36 05:00:47 19° 268° (W) 05:03:52 437.465
Oscar 19 18 Apr 05:03:03 05:05:06 12° 301° (WNW) 05:06:53 437.125/150
ITAMSAT 1 18 Apr 05:16:34 05:20:48 25° 295° (WNW) 05:24:54 435.822/435.867
AUBIESAT-1 18 Apr 05:29:27 05:33:04 23° 60° (ENE) 05:36:51 437.475
AO-7 18 Apr 05:32:35 05:40:45 59° 102° (ESE) 05:48:58 29.400- 29.500
GONETS M04 18 Apr 05:34:54 05:43:49 84° 81° (E) 05:52:41
HORYU 2 18 Apr 05:49:53 05:54:15 48° 288° (WNW) 05:58:34 437.375
CUBESAT XI-V 18 Apr 05:55:06 05:57:46 16° 64° (ENE) 06:00:35 437.345
JAS-2 18 Apr 05:56:36 06:03:34 89° 287° (WNW) 06:09:39 435.910
BEESAT 2 18 Apr 05:56:38 06:00:42 66° 121° (ESE) 06:04:51 435.950
DANDE 18 Apr 05:57:08 06:03:26 58° 77° (ENE) 06:11:20 436.750
AIST 2 18 Apr 06:04:52 06:08:25 27° 115° (ESE) 06:12:05 435.215
BEESAT 3 18 Apr 06:06:20 06:10:25 82° 304° (WNW) 06:14:35 437.485
M-CUBED/EXP-1 PRIME 18 Apr 06:12:25 06:17:02 63° 68° (ENE) 06:21:51 437.505
CUSAT 1 18 Apr 06:13:55 06:20:38 89° 261° (W) 06:28:46 437.405
MOZHAYETS 4 18 Apr 06:18:34 06:22:36 28° 266° (W) 06:26:35
Cosmos 2499 18 Apr 06:32:34 06:39:50 35° 68° (ENE) 06:46:43 435.465 / 435.565
PRISM 18 Apr 06:54:25 06:58:19 39° 71° (ENE) 07:02:15 437.425
CUTE-I 18 Apr 07:02:22 07:06:31 23° 92° (E) 07:10:47 437.470
AUBIESAT-1 18 Apr 07:03:03 07:07:33 47° 257° (WSW) 07:12:13 437.475
Cubesat XI-IV 18 Apr 07:09:09 07:13:36 27° 94° (E) 07:18:07 437.490
STRAND 1 18 Apr 07:25:02 07:30:04 63° 73° (ENE) 07:35:09 437.568
AO-7 18 Apr 07:25:56 07:33:15 35° 301° (WNW) 07:40:26 29.400- 29.500
CUBESAT XI-V 18 Apr 07:30:10 07:34:46 61° 259° (W) 07:39:23 437.345
GONETS M04 18 Apr 07:33:27 07:39:42 21° 280° (W) 07:45:32
BEESAT 2 18 Apr 07:36:28 07:39:17 17° 320° (NW) 07:42:01 435.950
DANDE 18 Apr 07:40:59 07:46:36 29° 268° (W) 07:53:00 436.750
AIST 2 18 Apr 07:43:01 07:46:56 34° 312° (NW) 07:50:52 435.215
JAS-2 18 Apr 07:43:14 07:47:36 18° 305° (NW) 07:51:28 435.910
BEESAT 3 18 Apr 07:47:12 07:49:10 13° 324° (NW) 07:51:02 437.485
M-CUBED/EXP-1 PRIME 18 Apr 07:49:24 07:52:21 16° 267° (W) 07:55:11 437.505
CUSAT 1 18 Apr 07:58:26 08:03:02 18° 273° (W) 08:07:40 437.405
Cosmos 2499 18 Apr 08:25:35 08:33:17 48° 271° (W) 08:40:20 435.465 / 435.565
PRISM 18 Apr 08:31:00 08:33:59 18° 268° (W) 08:36:51 437.425
BRITE-PL 18 Apr 08:31:27 08:33:01 12° 88° (E) 08:34:55 437.365/2234.400
CUTE-I 18 Apr 08:41:47 08:46:52 46° 290° (WNW) 08:51:54 437.470
HO-68 18 Apr 08:43:31 08:46:01 12° 84° (E) 08:49:04 435.675
Cubesat XI-IV 18 Apr 08:48:54 08:53:51 40° 291° (WNW) 08:58:45 437.490
GOMX 1 18 Apr 09:01:23 09:04:19 16° 90° (E) 09:07:34 467.674
STRAND 1 18 Apr 09:06:34 09:09:48 16° 271° (W) 09:12:50 437.568
O/OREOS (USA 219) 18 Apr 09:09:47 09:11:46 13° 48° (NE) 09:13:56 437.305
Cosmos 2491 18 Apr 09:17:01 09:18:28 11° 49° (NE) 09:20:39 435.465 / 435.565
CANX-2 18 Apr 09:22:11 09:25:03 18° 91° (E) 09:28:03 2200.000
SEEDS 18 Apr 09:28:25 09:30:54 15° 90° (E) 09:33:33 437.485
CUTE 1.7 + AOD 2 18 Apr 09:32:24 09:35:36 21° 92° (E) 09:38:53 437.475
PCSat 18 Apr 09:55:29 09:59:00 18° 106° (ESE) 10:02:42 145.827
AAUSAT CUBESAT 2 18 Apr 10:05:12 10:08:48 27° 94° (E) 10:12:24 437.432
BRITE-PL 18 Apr 10:07:19 10:12:06 81° 282° (WNW) 10:17:16 437.365/2234.400
Oscar 11 18 Apr 10:09:05 10:11:25 15° 89° (E) 10:13:56 145.826/435.025
DOVE 4 18 Apr 10:17:22 10:22:14 60° 101° (E) 10:27:19 437.250
ANTELSAT 18 Apr 10:17:40 10:20:51 20° 65° (ENE) 10:24:14 437.575/2403.000
CINEMA 3 18 Apr 10:26:52 10:31:25 39° 97° (E) 10:36:06 145.822/145.860
HO-68 18 Apr 10:27:55 10:35:09 75° 104° (ESE) 10:42:20 435.675
UWE-3 18 Apr 10:31:01 10:34:17 19° 91° (E) 10:37:42 435.000/436.395/437.385
YUBILEINY 18 Apr 10:32:01 10:32:20 10° 73° (ENE) 10:33:26 435.215
QB50P1 18 Apr 10:32:50 10:34:48 13° 64° (ENE) 10:36:58 145.935-145.965
DELFI C3 18 Apr 10:35:21 10:38:20 20° 92° (E) 10:41:24 145.870
GOMX 1 18 Apr 10:38:01 10:42:50 62° 285° (WNW) 10:47:56 467.674
O/OREOS (USA 219) 18 Apr 10:47:22 10:51:54 81° 248° (WSW) 10:56:22 437.305
COMPASS 1 18 Apr 10:50:32 10:54:48 80° 282° (WNW) 10:58:59 437.405
BUGSAT 1 18 Apr 10:53:21 10:55:33 15° 65° (ENE) 10:57:54 437.445
HUMSAT D 18 Apr 10:53:47 10:55:13 12° 87° (E) 10:56:53 437.325/437.525
QB50P2 18 Apr 10:54:21 10:57:37 23° 67° (ENE) 11:01:00 145.880/145.840
CANX-2 18 Apr 10:57:09 11:01:14 42° 288° (WNW) 11:05:15 2200.000
FUNcube-1 18 Apr 11:02:39 11:06:42 31° 95° (E) 11:10:49 145.935
SEEDS 18 Apr 11:02:55 11:07:03 47° 287° (WNW) 11:11:07 437.485
CUTE 1.7 + AOD 2 18 Apr 11:07:42 11:11:40 36° 289° (WNW) 11:15:33 437.475
Cosmos 2491 18 Apr 11:09:29 11:18:05 54° 75° (ENE) 11:26:41 435.465 / 435.565
TIGRISAT 18 Apr 11:10:47 11:15:10 66° 74° (ENE) 11:19:41 435.000
UNISAT 6 18 Apr 11:11:09 11:15:33 69° 75° (ENE) 11:20:06 437.425
AISAT 18 Apr 11:16:48 11:18:38 13° 88° (E) 11:20:42 437.250
POPSAT HIP 1 18 Apr 11:17:05 11:20:57 38° 71° (ENE) 11:24:54 437.405
NANOSAT C BR1 18 Apr 11:17:46 11:21:38 38° 71° (ENE) 11:25:35 145.865
UKube-1 18 Apr 11:22:12 11:25:56 28° 95° (E) 11:29:42 .
CUBEBUG 2 18 Apr 11:22:26 11:27:11 77° 102° (ESE) 11:31:58 437.445
ZACube-1 18 Apr 11:24:16 11:28:46 53° 99° (E) 11:33:17 437.345
PCSat 18 Apr 11:36:34 11:41:56 65° 303° (WNW) 11:47:22 145.827
AAUSAT CUBESAT 2 18 Apr 11:40:48 11:44:22 26° 291° (WNW) 11:47:51 437.432
POLYITAN 1 18 Apr 11:42:30 11:46:41 75° 76° (ENE) 11:50:56 437.675
Oscar 11 18 Apr 11:43:44 11:48:00 52° 287° (WNW) 11:52:13 145.826/435.025
BRITE-PL 18 Apr 11:49:13 11:50:05 10° 298° (WNW) 11:50:39 437.365/2234.400
ANTELSAT 18 Apr 11:53:08 11:57:22 43° 262° (W) 12:01:43 437.575/2403.000
DUCHIFAT 1 18 Apr 11:54:00 11:58:11 84° 255° (WSW) 12:02:25 145.980
DOVE 4 18 Apr 11:56:18 11:59:38 18° 295° (WNW) 12:02:55 437.250
50 SAT 18 Apr 11:56:24 12:00:07 34° 97° (E) 12:03:51 437.505
DX 1 18 Apr 12:02:50 12:07:12 84° 103° (ESE) 12:11:34 434.975-435.025
CINEMA 3 18 Apr 12:04:27 12:08:27 25° 292° (WNW) 12:12:27 145.822/145.860
QB50P1 18 Apr 12:06:06 12:10:15 60° 259° (W) 12:14:25 145.935-145.965
UWE-3 18 Apr 12:06:36 12:11:04 46° 288° (WNW) 12:15:33 435.000/436.395/437.385
DELFI C3 18 Apr 12:09:55 12:13:36 33° 289° (WNW) 12:17:13 145.870
HO-68 18 Apr 12:16:42 12:22:16 24° 302° (WNW) 12:27:37 435.675
YUBILEINY 18 Apr 12:18:54 12:27:28 60° 92° (E) 12:36:07 435.215
BUGSAT 1 18 Apr 12:26:47 12:30:42 48° 261° (W) 12:34:37 437.445
HUMSAT D 18 Apr 12:27:10 12:31:30 66° 285° (WNW) 12:35:48 437.325/437.525
QB50P2 18 Apr 12:29:35 12:33:24 32° 264° (W) 12:37:12 145.880/145.840
VELOX 1 18 Apr 12:36:50 12:41:17 88° 103° (ESE) 12:45:43 145.980
FUNcube-1 18 Apr 12:39:03 12:42:58 28° 291° (WNW) 12:46:50 145.935
BEESAT 3 18 Apr 12:48:17 12:49:54 12° 35° (NE) 12:51:38 437.485
TIGRISAT 18 Apr 12:50:34 12:52:30 12° 273° (W) 12:54:13 435.000
UNISAT 6 18 Apr 12:51:12 12:52:58 12° 273° (W) 12:54:30 437.425
AISAT 18 Apr 12:51:20 12:55:44 63° 286° (WNW) 13:00:07 437.250
POPSAT HIP 1 18 Apr 12:54:00 12:57:02 19° 268° (W) 12:59:59 437.405
NANOSAT C BR1 18 Apr 12:54:41 12:57:41 18° 268° (W) 13:00:36 145.865
UKube-1 18 Apr 12:58:20 13:02:02 27° 292° (WNW) 13:05:40 .
CUBEBUG 2 18 Apr 13:00:59 13:03:20 13° 297° (WNW) 13:05:28 437.445
ESTCUBE 1 18 Apr 13:01:13 13:05:44 87° 103° (ESE) 13:10:13 437.505/2401.250
Oscar 19 18 Apr 13:01:24 13:05:05 21° 64° (ENE) 13:08:56 437.125/150
ZACube-1 18 Apr 13:01:41 13:04:46 18° 295° (WNW) 13:07:43 437.345
AIST 1 18 Apr 13:03:16 13:07:02 30° 74° (ENE) 13:10:50
CUBEBUG 1 18 Apr 13:06:42 13:11:04 90° 99° (E) 13:15:25 437.445
Cosmos 2491 18 Apr 13:06:53 13:14:39 35° 275° (W) 13:22:14 435.465 / 435.565
ITAMSAT 1 18 Apr 13:21:12 13:21:44 10° 57° (ENE) 13:22:33 435.822/435.867
PCSat 18 Apr 13:23:38 13:26:31 14° 325° (NW) 13:29:14 145.827
SPROUT 18 Apr 13:23:52 13:27:52 37° 97° (E) 13:31:53 437.525
TISAT 1 18 Apr 13:25:09 13:28:52 30° 96° (E) 13:32:38 437.305
50 SAT 18 Apr 13:31:43 13:34:46 20° 293° (WNW) 13:37:43 437.505
DX 1 18 Apr 13:41:48 13:42:52 11° 299° (WNW) 13:43:43 434.975-435.025
BEESAT 2 18 Apr 14:15:22 14:19:26 52° 52° (NE) 14:23:25 435.950
VELOX 1 18 Apr 14:16:22 14:17:14 10° 299° (WNW) 14:17:53 145.980
YUBILEINY 18 Apr 14:17:08 14:24:54 32° 293° (WNW) 14:32:30 435.215
Cosmos 2504 18 Apr 14:23:20 14:31:05 38° 86° (E) 14:39:04 435.465 / 435.565
ITUPSAT 1 18 Apr 14:24:25 14:27:59 21° 92° (E) 14:31:39 437.325
BEESAT 3 18 Apr 14:24:34 14:28:42 77° 55° (NE) 14:32:45 437.485
AIST 2 18 Apr 14:25:34 14:29:09 26° 45° (NE) 14:32:44 435.215
RS-15 18 Apr 14:27:43 14:31:07 12° 97° (E) 14:35:35 29.354- 29.394
JAS-2 18 Apr 14:28:59 14:30:58 11° 50° (NE) 14:33:24 435.910
SO-50 18 Apr 14:33:33 14:38:09 67° 121° (ESE) 14:42:56 436.795
Gurwin Techsat 1B 18 Apr 14:37:17 14:42:13 42° 70° (ENE) 14:47:13 435.225
Oscar 19 18 Apr 14:39:04 14:44:06 53° 260° (W) 14:49:10 437.125/150
ESTCUBE 1 18 Apr 14:40:53 14:42:00 11° 299° (WNW) 14:42:52 437.505/2401.250
AIST 1 18 Apr 14:41:14 14:44:34 22° 271° (W) 14:47:47
AO-7 18 Apr 14:43:15 14:48:43 21° 50° (NE) 14:54:30 29.400- 29.500
ISS 18 Apr 14:54:19 14:56:20 16° 133° (SE) 14:58:26 145.825
ITAMSAT 1 18 Apr 14:55:16 15:00:25 72° 74° (ENE) 15:05:37 435.822/435.867
BEESAT 18 Apr 14:59:53 15:04:31 48° 99° (E) 15:09:07 436.000
SPROUT 18 Apr 15:00:27 15:03:46 21° 293° (WNW) 15:06:58 437.525
SWISSCUBE 18 Apr 15:00:57 15:05:38 54° 100° (E) 15:10:17 437.505
TISAT 1 18 Apr 15:01:05 15:04:34 25° 292° (WNW) 15:07:58 437.305
HORYU 2 18 Apr 15:13:47 15:16:48 19° 65° (ENE) 15:20:00 437.375
KKS-1 18 Apr 15:31:28 15:34:39 19° 92° (E) 15:37:57 437.445
BEESAT 2 18 Apr 15:54:37 15:57:11 16° 249° (WSW) 15:59:35 435.950
ITUPSAT 1 18 Apr 16:01:35 16:06:06 42° 290° (WNW) 16:10:34 437.325
AIST 2 18 Apr 16:03:55 16:07:51 37° 243° (WSW) 16:11:41 435.215
BEESAT 3 18 Apr 16:05:33 16:06:10 10° 251° (WSW) 16:06:33 437.485
JAS-2 18 Apr 16:07:03 16:14:27 50° 68° (ENE) 16:21:55 435.910
SO-50 18 Apr 16:15:36 16:19:13 21° 321° (NW) 16:22:50 436.795
Cosmos 2504 18 Apr 16:15:43 16:24:19 52° 286° (WNW) 16:32:54 435.465 / 435.565
Gurwin Techsat 1B 18 Apr 16:17:56 16:22:23 26° 267° (W) 16:26:44 435.225
ISS 18 Apr 16:29:09 16:32:24 66° 329° (NNW) 16:35:40 145.825
RS-15 18 Apr 16:30:51 16:41:29 65° 116° (ESE) 16:52:24 29.354- 29.394
AO-7 18 Apr 16:32:10 16:40:27 82° 71° (ENE) 16:48:47 29.400- 29.500
ITAMSAT 1 18 Apr 16:37:40 16:40:34 14° 272° (W) 16:43:12 435.822/435.867
BEESAT 18 Apr 16:38:34 16:42:03 20° 296° (WNW) 16:45:24 436.000
SWISSCUBE 18 Apr 16:39:51 16:43:07 18° 296° (WNW) 16:46:14 437.505
GONETS M04 18 Apr 16:43:52 16:49:16 19° 79° (E) 16:55:10
STARS 18 Apr 16:44:55 16:49:23 74° 102° (ESE) 16:53:49 437.465
HORYU 2 18 Apr 16:48:50 16:53:09 46° 261° (W) 16:57:30 437.375
KKS-1 18 Apr 17:07:17 17:11:31 42° 289° (WNW) 17:15:43 437.445
JAS-2 18 Apr 17:52:25 17:59:36 39° 267° (W) 18:06:46 435.910
ISS 18 Apr 18:06:42 18:09:15 20° 348° (NNW) 18:11:46 145.825
MOZHAYETS 4 18 Apr 18:12:07 18:16:43 65° 101° (E) 18:21:16
Cosmos 2504 18 Apr 18:18:01 18:20:24 11° 311° (NW) 18:22:05 435.465 / 435.565
STARS 18 Apr 18:23:22 18:25:19 12° 298° (WNW) 18:27:03 437.465
CUTE-I 18 Apr 18:24:49 18:29:47 42° 69° (ENE) 18:34:48 437.470
AO-7 18 Apr 18:28:07 18:34:17 22° 270° (W) 18:40:08 29.400- 29.500
Cubesat XI-IV 18 Apr 18:31:48 18:36:54 49° 71° (ENE) 18:42:03 437.490
GONETS M04 18 Apr 18:36:18 18:45:03 88° 274° (W) 18:53:57
PCSat 18 Apr 18:41:00 18:45:07 22° 42° (NE) 18:49:19 145.827
RS-15 18 Apr 18:44:14 18:54:33 44° 322° (NW) 19:05:04 29.354- 29.394
AUBIESAT-1 18 Apr 18:45:51 18:47:39 13° 92° (E) 18:49:37 437.475
Cosmos 2499 18 Apr 19:09:28 19:16:39 30° 84° (E) 19:24:02 435.465 / 435.565
DANDE 18 Apr 19:13:24 19:16:07 43° 95° (E) 19:19:27 436.750
HO-68 18 Apr 19:14:43 19:17:27 13° 50° (NE) 19:20:33 435.675
CUSAT 1 18 Apr 19:25:39 19:28:39 74° 281° (W) 19:32:31 437.405
CUBESAT XI-V 18 Apr 19:26:21 19:30:25 31° 95° (E) 19:34:31 437.345
M-CUBED/EXP-1 PRIME 18 Apr 19:28:50 19:33:07 42° 102° (ESE) 19:37:05 437.505
STRAND 1 18 Apr 19:35:40 19:39:16 20° 91° (E) 19:43:00 437.568
ISS 18 Apr 19:44:04 19:46:27 18° 8° (N) 19:48:50 145.825
BRITE-PL 18 Apr 19:44:24 19:45:56 12° 63° (ENE) 19:47:40 437.365/2234.400
MOZHAYETS 4 18 Apr 19:50:52 19:53:28 15° 297° (WNW) 19:55:52
CUTE-I 18 Apr 20:05:34 20:10:03 26° 267° (W) 20:14:25 437.470
PRISM 18 Apr 20:11:13 20:15:17 57° 101° (E) 20:19:19 437.425
GOMX 1 18 Apr 20:11:42 20:14:05 15° 64° (ENE) 20:16:39 467.674
Cubesat XI-IV 18 Apr 20:13:08 20:17:19 22° 268° (W) 20:21:23 437.490
CANX-2 18 Apr 20:16:41 20:19:09 16° 65° (ENE) 20:21:46 2200.000
AUBIESAT-1 18 Apr 20:18:38 20:23:04 62° 292° (WNW) 20:27:08 437.475
SEEDS 18 Apr 20:22:16 20:24:15 13° 64° (ENE) 20:26:26 437.485
PCSat 18 Apr 20:23:42 20:29:07 70° 243° (WSW) 20:34:29 145.827
CUTE 1.7 + AOD 2 18 Apr 20:26:39 20:29:29 18° 66° (ENE) 20:32:26 437.475
VERMONT LUNAR 18 Apr 20:33:38 20:36:02 18° 154° (SSE) 20:38:30 437.305
GONETS M04 18 Apr 20:37:14 20:43:27 20° 301° (WNW) 20:49:19
HO-68 18 Apr 20:56:52 21:03:53 60° 69° (ENE) 21:10:58 435.675
AAUSAT CUBESAT 2 18 Apr 20:57:16 21:00:28 22° 67° (ENE) 21:03:46 437.432
Cosmos 2499 18 Apr 21:00:30 21:09:19 64° 283° (WNW) 21:18:03 435.465 / 435.565
RS-15 18 Apr 21:02:25 21:10:54 24° 355° (N) 21:19:35 29.354- 29.394
CUBESAT XI-V 18 Apr 21:03:53 21:07:48 28° 292° (WNW) 21:11:39 437.345
M-CUBED/EXP-1 PRIME 18 Apr 21:04:15 21:07:41 21° 301° (WNW) 21:10:50 437.505
Oscar 11 18 Apr 21:05:24 21:07:32 14° 64° (ENE) 21:09:51 145.826/435.025
STRAND 1 18 Apr 21:13:53 21:18:49 51° 289° (WNW) 21:23:44 437.568
BRITE-PL 18 Apr 21:19:56 21:24:02 61° 259° (W) 21:28:11 437.365/2234.400
ISS 18 Apr 21:20:13 21:23:24 47° 27° (NNE) 21:26:33 145.825
PHONESAT 2.4 18 Apr 21:22:01 21:24:28 18° 152° (SSE) 21:26:57 2401.200-2431.200
DOVE 4 18 Apr 21:24:27 21:28:32 60° 74° (ENE) 21:32:48 437.250
DELFI C3 18 Apr 21:24:37 21:26:58 15° 65° (ENE) 21:29:28 145.870
SO-50 18 Apr 21:24:53 21:27:48 16° 34° (NE) 21:30:50 436.795
UWE-3 18 Apr 21:29:52 21:32:31 17° 64° (ENE) 21:35:22 435.000/436.395/437.385
CINEMA 3 18 Apr 21:29:58 21:33:49 35° 70° (ENE) 21:37:50 145.822/145.860
COMPASS 1 18 Apr 21:42:16 21:46:30 77° 76° (ENE) 21:50:46 437.405
GOMX 1 18 Apr 21:47:53 21:51:54 47° 261° (W) 21:56:00 467.674
PRISM 18 Apr 21:48:15 21:50:20 13° 297° (WNW) 21:52:15 437.425
CANX-2 18 Apr 21:50:30 21:54:42 53° 261° (W) 21:58:56 2200.000
SEEDS 18 Apr 21:55:23 21:59:36 62° 259° (W) 22:03:52 437.485
FUNcube-1 18 Apr 21:59:39 22:03:10 26° 68° (ENE) 22:06:50 145.935
CUTE 1.7 + AOD 2 18 Apr 22:00:59 22:05:06 44° 262° (W) 22:09:15 437.475
VERMONT LUNAR 18 Apr 22:09:54 22:13:11 48° 169° (S) 22:16:28 437.305
AISAT 18 Apr 22:15:55 22:18:05 14° 63° (ENE) 22:20:25 437.250
UKube-1 18 Apr 22:18:02 22:21:41 27° 68° (ENE) 22:25:23 .
ZACube-1 18 Apr 22:21:09 22:25:12 44° 72° (ENE) 22:29:23 437.345
CUBEBUG 2 18 Apr 22:21:34 22:25:48 69° 75° (ENE) 22:30:12 437.445
YUBILEINY 18 Apr 22:28:27 22:35:53 31° 66° (ENE) 22:43:27 435.215
ESTCUBE 1 18 Apr 22:29:19 22:29:44 10° 60° (ENE) 22:30:24 437.505/2401.250
AAUSAT CUBESAT 2 18 Apr 22:32:03 22:35:55 34° 264° (W) 22:39:47 437.432
Oscar 11 18 Apr 22:38:57 22:43:15 62° 259° (W) 22:47:37 145.826/435.025
50 SAT 18 Apr 22:43:11 22:46:19 23° 68° (ENE) 22:49:34 437.505
HO-68 18 Apr 22:46:06 22:52:07 27° 268° (W) 22:57:58 435.675
ISS 18 Apr 22:56:57 22:59:36 23° 224° (SW) 23:02:12 145.825
DELFI C3 18 Apr 22:57:48 23:01:46 48° 261° (W) 23:05:46 145.870
PHONESAT 2.4 18 Apr 22:58:51 23:02:18 47° 168° (SSE) 23:05:44 2401.200-2431.200
DX 1 18 Apr 22:59:02 23:03:22 81° 77° (ENE) 23:07:43 434.975-435.025
Cosmos 2499 18 Apr 23:00:00 23:04:37 14° 306° (NW) 23:08:37 435.465 / 435.565
TIGRISAT 18 Apr 23:03:15 23:05:39 14° 88° (E) 23:08:15 435.000
UNISAT 6 18 Apr 23:03:47 23:06:20 15° 88° (E) 23:09:06 437.425
SO-50 18 Apr 23:04:16 23:09:15 75° 55° (NE) 23:14:10 436.795
UWE-3 18 Apr 23:04:33 23:08:42 49° 261° (W) 23:12:58 435.000/436.395/437.385
DOVE 4 18 Apr 23:05:26 23:06:55 11° 273° (W) 23:08:09 437.250
CINEMA 3 18 Apr 23:07:58 23:11:12 20° 269° (W) 23:14:26 145.822/145.860
RS-15 18 Apr 23:18:05 23:27:58 33° 28° (NNE) 23:38:24 29.354- 29.394
HUMSAT D 18 Apr 23:19:33 23:23:44 85° 257° (WSW) 23:28:01 437.325/437.525
O/OREOS (USA 219) 18 Apr 23:25:21 23:25:49 10° 98° (E) 23:26:35 437.305
POLYITAN 1 18 Apr 23:29:16 23:30:49 12° 88° (E) 23:32:36 437.675
VELOX 1 18 Apr 23:35:06 23:39:31 86° 80° (E) 23:43:57 145.980
FUNcube-1 18 Apr 23:35:43 23:39:26 29° 265° (W) 23:43:14 145.935
DUCHIFAT 1 18 Apr 23:39:23 23:41:45 15° 90° (E) 23:44:18 145.980
ANTELSAT 18 Apr 23:44:09 23:48:32 38° 96° (E) 23:52:56 437.575/2403.000
VERMONT LUNAR 18 Apr 23:47:15 23:50:34 55° 186° (S) 23:53:52 437.305
AISAT 18 Apr 23:49:52 23:54:13 63° 258° (WSW) 23:58:36 437.250
QB50P1 18 Apr 23:51:07 23:54:18 21° 93° (E) 23:57:35 145.935-145.965
UKube-1 18 Apr 23:54:03 23:57:47 28° 265° (W) 00:01:29 .
ZACube-1 18 Apr 23:59:01 00:01:52 17° 270° (W) 00:04:38 437.345
ESTCUBE 1 19 Apr 00:01:26 00:05:58 88° 77° (ENE) 00:10:31 437.505/2401.250
CUBEBUG 2 19 Apr 00:01:56 00:03:09 11° 274° (W) 00:04:07 437.445
CUBEBUG 1 19 Apr 00:03:29 00:07:49 82° 76° (ENE) 00:12:10 437.445
BUGSAT 1 19 Apr 00:08:38 00:11:46 21° 94° (E) 00:15:00 437.445
Cosmos 2491 19 Apr 00:11:20 00:19:48 60° 92° (E) 00:28:22 435.465 / 435.565
QB50P2 19 Apr 00:13:46 00:17:44 37° 97° (E) 00:21:44 145.880/145.840
Cosmos 2504 19 Apr 00:17:08 00:20:31 13° 52° (NE) 00:24:20 435.465 / 435.565
50 SAT 19 Apr 00:17:35 00:21:04 28° 265° (W) 00:24:32 437.505
TISAT 1 19 Apr 00:18:29 00:21:55 25° 68° (ENE) 00:25:24 437.305
SPROUT 19 Apr 00:18:59 00:22:45 32° 70° (ENE) 00:26:35 437.525
YUBILEINY 19 Apr 00:24:46 00:33:24 62° 268° (W) 00:41:53 435.215
POPSAT HIP 1 19 Apr 00:36:51 00:41:07 65° 101° (E) 00:45:23 437.405
PHONESAT 2.4 19 Apr 00:36:52 00:40:23 58° 185° (S) 00:43:54 2401.200-2431.200
NANOSAT C BR1 19 Apr 00:37:15 00:41:31 66° 101° (E) 00:45:46 145.865
TIGRISAT 19 Apr 00:38:13 00:42:54 64° 286° (WNW) 00:47:33 435.000
UNISAT 6 19 Apr 00:38:55 00:43:36 61° 286° (WNW) 00:48:14 437.425
SO-50 19 Apr 00:46:27 00:49:16 15° 251° (WSW) 00:51:50 436.795
O/OREOS (USA 219) 19 Apr 01:00:03 01:04:38 80° 292° (WNW) 01:09:15 437.305
POLYITAN 1 19 Apr 01:02:58 01:07:14 63° 286° (WNW) 01:11:30 437.675
DUCHIFAT 1 19 Apr 01:13:47 01:17:55 49° 287° (WNW) 01:22:03 145.980
ANTELSAT 19 Apr 01:21:18 01:25:09 25° 293° (WNW) 01:28:54 437.575/2403.000
VERMONT LUNAR 19 Apr 01:24:58 01:27:48 25° 202° (SSW) 01:30:35 437.305
QB50P1 19 Apr 01:26:22 01:30:18 36° 289° (WNW) 01:34:13 145.935-145.965
RS-15 19 Apr 01:30:44 01:42:19 85° 56° (NE) 01:54:25 29.354- 29.394
ITUPSAT 1 19 Apr 01:32:00 01:36:01 28° 67° (ENE) 01:40:07 437.325
AIST 1 19 Apr 01:34:35 01:37:26 18° 88° (E) 01:40:26
BUGSAT 1 19 Apr 01:43:40 01:47:20 32° 290° (WNW) 01:50:59 437.445
QB50P2 19 Apr 01:50:10 01:53:26 21° 293° (WNW) 01:56:37 145.880/145.840
TISAT 1 19 Apr 01:54:00 01:57:38 28° 265° (W) 02:01:15 437.305
SPROUT 19 Apr 01:55:27 01:58:55 23° 267° (W) 02:02:18 437.525
BEESAT 19 Apr 02:07:02 02:11:45 61° 73° (ENE) 02:16:30 436.000
Cosmos 2504 19 Apr 02:07:50 02:16:08 66° 78° (ENE) 02:23:48 435.465 / 435.565
SWISSCUBE 19 Apr 02:08:10 02:12:56 68° 74° (ENE) 02:17:43 437.505
Cosmos 2491 19 Apr 02:09:38 02:17:17 32° 294° (WNW) 02:24:47 435.465 / 435.565
POPSAT HIP 1 19 Apr 02:14:29 02:16:32 13° 297° (WNW) 02:18:24 437.405
NANOSAT C BR1 19 Apr 02:14:54 02:16:54 13° 297° (WNW) 02:18:42 145.865
PHONESAT 2.4 19 Apr 02:15:14 02:18:22 29° 201° (SSW) 02:21:29 2401.200-2431.200
YUBILEINY 19 Apr 02:26:37 02:28:34 11° 287° (WNW) 02:29:46 435.215
KKS-1 19 Apr 02:30:47 02:33:59 20° 66° (ENE) 02:37:18 437.445
O/OREOS (USA 219) 19 Apr 02:43:36 02:44:57 11° 314° (NW) 02:46:05 437.305
Oscar 19 19 Apr 02:49:39 02:54:44 51° 99° (E) 02:59:48 437.125/150
Gurwin Techsat 1B 19 Apr 02:53:53 02:56:48 15° 88° (E) 02:59:58 435.225
ITAMSAT 1 19 Apr 03:07:58 03:12:01 23° 93° (E) 03:16:12 435.822/435.867
ITUPSAT 1 19 Apr 03:09:28 03:13:50 33° 264° (W) 03:18:10 437.325
AIST 1 19 Apr 03:10:46 03:14:51 38° 284° (WNW) 03:18:53
STARS 19 Apr 03:42:31 03:46:51 71° 75° (ENE) 03:51:15 437.465
RS-15 19 Apr 03:44:25 03:53:44 28° 255° (WSW) 04:02:50 29.354- 29.394
BEESAT 19 Apr 03:47:16 03:50:05 15° 271° (W) 03:52:41 436.000
SWISSCUBE 19 Apr 03:48:56 03:51:21 13° 272° (W) 03:53:32 437.505
Cosmos 2504 19 Apr 04:02:21 04:08:50 25° 278° (W) 04:14:43 435.465 / 435.565
KKS-1 19 Apr 04:06:11 04:10:23 41° 262° (W) 04:14:35 437.445
DANDE 19 Apr 04:09:41 04:11:03 11° 59° (ENE) 04:13:00 436.750
